User: anonymous   Login
Location: Taupo
(38.6830°S, 176.0830°E)
Time: 20:37:09
(UTC+13:00)
Language:

Cosmos 1763 Rocket - Orbit

View from above orbital plane
View from above orbital plane
View from above satellite
View from above satellite

Ground track
Ground track

The orbit data is extracted from the following two-line orbital elements,

1 16864U 86052B   19295.59149729 -.00000030 +00000-0 -91762-6 0  9994
2 16864 074.0262 307.5286 0033394 195.1742 164.8415 14.40558344746127
Epoch (UTC): 22 October 2019 14:11:45
Eccentricity: 0.0033394
inclination: 74.0262°
perigee height: 733 km
apogee height: 780 km
right ascension of ascending node: 307.5286°
argument of perigee: 195.1742°
revolutions per day: 14.40558344
mean anomaly at epoch: 164.8415°
orbit number at epoch: 74612

The dashed part of the orbit path shows where the satellite is in the earth's shadow,  

DLR